Location: Casilda
(33.0440°S, 61.1680°W)
Time: 23:16:23
(UTC-03:00)

ISS - Visible Passes

Search period start: 21 April 2019 00:00
Search period end: 01 May 2019 00:00
Orbit: 408 x 410 km, 51.6° (Epoch: 22 April)

Date Brightness Start Highest point End Pass type
(mag) Time Alt. Az. Time Alt. Az. Time Alt. Az.
21 Apr -3.0 19:17:43 10° NNW 19:20:47 36° NE 19:23:05 16° ESE visible
21 Apr -0.6 20:54:58 10° W 20:55:52 14° WSW 20:55:52 14° WSW visible
22 Apr -2.3 20:03:28 10° WNW 20:06:31 33° SW 20:07:35 26° S visible
23 Apr -3.5 19:12:21 10° NW 19:15:39 67° SW 19:19:00 10° SE visible
24 Apr -1.1 19:59:41 10° WSW 20:01:42 15° SSW 20:03:25 11° S visible
25 Apr -1.8 19:07:53 10° W 19:10:40 24° SW 19:13:30 10° SSE visible
27 Apr -1.0 19:04:33 10° SW 19:05:50 12° SSW 19:07:09 10° S visible
